Home > Weather > Langley > Past weeks

Flag for Canada Weather for the Past 2 Weeks in Langley, British Columbia, Canada

Now
56 °F

Cool.


Feels Like: 56 °F
Forecast: 46 / 75 °F
Wind: 1 mph from Southwest

Location: P. Meadows Coastal Station

Current Time: May 1, 2016 at 9:29:52 AM

Latest Report: May 1, 2016 at 9:00 AM


Visibility: N/A

Pressure: 30.22 "Hg

Humidity: 75%

Dew Point: 48 °F

Location of LangleyLocation

Historic Weather in Langley — Graph

°F

Langley Temperature Yesterday

Maximum temperature yesterday: 68 °F (at 4:00 PM)
Minimum temperature yesterday: 42 °F (at 6:00 AM)
Average temperature yesterday: 56 °F

High & Low Weather Summary for the Past Weeks

 TemperatureHumidityPressure
High85 °F (Apr 18, 4:00 PM)96% (Apr 25, 7:00 AM)30.37 "Hg (Apr 25, 7:00 AM)
Low-17 °F (Apr 20, 5:00 AM)20% (Apr 18, 3:00 PM)29.59 "Hg (Apr 22, 5:00 AM)
Average55 °F70%30.05 "Hg
* Reported Apr 16 8:00 AM — May 1 8:00 AM, Langley, Weather by CustomWeather, © 2016

Note: Actual official high and low records may vary slightly from our data, if they occured in-between our weather recording intervals... More about our weather records

Advertising

Langley Weather History for the Previous 24 Hours

Scroll right to see more
 ConditionsComfort  
Time TempWeatherWind HumidityBarometerVisibility
8:00 AM
Sun, May 1
52 °FCool.1 mph82%30.24 "HgN/A
7:00 AM47 °FCool.1 mph90%30.25 "HgN/A
6:00 AM44 °FQuite cool.No wind91%30.25 "HgN/A
5:00 AM44 °FQuite cool.1 mph92%30.26 "HgN/A
4:00 AM45 °FCool.2 mph90%30.27 "HgN/A
3:00 AM46 °FCool.1 mph90%30.28 "HgN/A
2:00 AM48 °FCool.No wind87%30.28 "HgN/A
1:00 AM49 °FCool.1 mph82%30.29 "HgN/A
12:00 AM50 °FCool.1 mph78%30.29 "HgN/A
11:00 PM
Sat, Apr 30
51 °FCool.No wind79%30.30 "HgN/A
10:00 PM55 °FCool.No wind64%30.31 "HgN/A
9:00 PM58 °FRefreshingly cool.1 mph53%30.30 "HgN/A
8:00 PM64 °FMild.2 mph41%30.29 "HgN/A
7:00 PM67 °FMild.3 mph37%30.29 "HgN/A
6:00 PM67 °FMild.9 mph38%30.30 "HgN/A
5:00 PM68 °FMild.7 mph38%30.31 "HgN/A
4:00 PM68 °FMild.8 mph39%30.31 "HgN/A
3:00 PM68 °FMild.8 mph49%30.32 "HgN/A
2:00 PM67 °FMild.7 mph50%30.33 "HgN/A
1:00 PM66 °FMild.6 mph48%30.34 "HgN/A
12:00 PM62 °FRefreshingly cool.2 mph56%30.36 "HgN/A
11:00 AM59 °FCool.2 mph61%30.37 "HgN/A
10:00 AM56 °FCool.2 mph70%30.37 "HgN/A
9:00 AM53 °FCool.1 mph83%30.37 "HgN/A
Weather by CustomWeather, © 2016

See weather overviewHow to use our weather pages